When you browse on this site, cookies collect data to enhance your experience and personalize the content and advertising you see.
Visit our Privacy Policy to learn more. By continuing to use the site, you agree to this use of cookies and data.
  • In Hungary
  • List of Countries
  • For 7 days
  • Water Temperature
  • Satellite Maps
  • Weather Map
  • News
  • Weather Widgets
  • user-avatar
    Login

    Hourly Weather Al Hudaydah

    Today, 22 January, Tuesday

    Time Temperature Precipitation Wind Pressure Humidity
    00:00 +28°C° 0 mm 3 mps 756 mmHg 72%
    01:00 +28°C° 0 mm 3 mps 756 mmHg 74%
    02:00 +27°C° 0 mm 3 mps 755 mmHg 77%
    03:00 +27°C° 0 mm 3 mps 755 mmHg 81%
    04:00 +27°C° 0 mm 3 mps 755 mmHg 82%
    05:00 +26°C° 0 mm 3 mps 755 mmHg 83%
    06:00 +26°C° 0 mm 3 mps 755 mmHg 83%
    07:00 +27°C° 0 mm 3 mps 756 mmHg 79%
    08:00 +27°C° 0 mm 3 mps 756 mmHg 75%
    09:00 +28°C° 0 mm 3 mps 756 mmHg 71%
    10:00 +29°C° 0 mm 4 mps 756 mmHg 65%
    11:00 +32°C° 0 mm 4 mps 755 mmHg 59%
    12:00 +33°C° 0 mm 4 mps 755 mmHg 53%
    13:00 +33°C° 0 mm 4 mps 755 mmHg 51%
    14:00 +34°C° 0 mm 4 mps 754 mmHg 50%
    15:00 +34°C° 0 mm 5 mps 754 mmHg 48%
    16:00 +33°C° 0 mm 4 mps 754 mmHg 51%
    17:00 +33°C° 0 mm 4 mps 754 mmHg 54%
    18:00 +32°C° 0 mm 4 mps 754 mmHg 57%
    19:00 +31°C° 0 mm 3 mps 754 mmHg 59%
    20:00 +30°C° 0 mm 3 mps 754 mmHg 62%
    21:00 +30°C° 0 mm 3 mps 755 mmHg 64%
    22:00 +29°C° 0 mm 3 mps 755 mmHg 66%
    23:00 +29°C° 0 mm 3 mps 755 mmHg 69%

    Tomorrow, 23 January, Wednesday

    Time Temperature Precipitation Wind Pressure Humidity
    00:00 +28°C° 0 mm 3 mps 755 mmHg 71%
    01:00 +28°C° 0 mm 3 mps 755 mmHg 73%
    02:00 +28°C° 0 mm 3 mps 754 mmHg 75%
    03:00 +27°C° 0 mm 3 mps 754 mmHg 77%
    04:00 +27°C° 0 mm 2 mps 754 mmHg 79%
    05:00 +27°C° 0 mm 2 mps 754 mmHg 80%
    06:00 +26°C° 0 mm 2 mps 754 mmHg 82%
    07:00 +27°C° 0 mm 2 mps 755 mmHg 79%
    08:00 +28°C° 0 mm 3 mps 755 mmHg 75%
    09:00 +28°C° 0 mm 3 mps 756 mmHg 72%
    10:00 +29°C° 0 mm 3 mps 755 mmHg 66%
    11:00 +31°C° 0 mm 3 mps 755 mmHg 60%
    12:00 +33°C° 0 mm 4 mps 755 mmHg 54%
    13:00 +33°C° 0 mm 4 mps 754 mmHg 53%
    14:00 +34°C° 0 mm 5 mps 754 mmHg 51%
    15:00 +34°C° 0 mm 6 mps 753 mmHg 50%
    16:00 +33°C° 0 mm 5 mps 753 mmHg 52%
    17:00 +33°C° 0 mm 5 mps 753 mmHg 54%
    18:00 +32°C° 0 mm 5 mps 753 mmHg 57%
    19:00 +32°C° 0 mm 4 mps 754 mmHg 58%
    20:00 +30°C° 0 mm 4 mps 755 mmHg 59%
    21:00 +30°C° 0 mm 4 mps 755 mmHg 61%
    22:00 +29°C° 0 mm 4 mps 755 mmHg 63%
    23:00 +29°C° 0 mm 4 mps 755 mmHg 65%

    Day after tomorrow, 24 January, Thursday

    Time Temperature Precipitation Wind Pressure Humidity
    00:00 +28°C° 0 mm 4 mps 755 mmHg 67%
    01:00 +28°C° 0 mm 3 mps 755 mmHg 70%
    02:00 +28°C° 0 mm 3 mps 755 mmHg 72%
    03:00 +27°C° 0 mm 3 mps 755 mmHg 74%
    04:00 +27°C° 0 mm 3 mps 755 mmHg 75%
    05:00 +27°C° 0 mm 3 mps 755 mmHg 77%
    06:00 +27°C° 0 mm 3 mps 755 mmHg 78%
    07:00 +27°C° 0 mm 3 mps 756 mmHg 74%
    08:00 +28°C° 0 mm 4 mps 756 mmHg 71%
    09:00 +29°C° 0 mm 4 mps 757 mmHg 68%
    10:00 +30°C° 0 mm 5 mps 756 mmHg 62%
    11:00 +32°C° 0 mm 5 mps 756 mmHg 57%
    12:00 +33°C° 0 mm 5 mps 756 mmHg 51%
    13:00 +34°C° 0 mm 5 mps 755 mmHg 49%
    14:00 +34°C° 0 mm 6 mps 754 mmHg 48%
    15:00 +34°C° 0 mm 6 mps 753 mmHg 46%
    16:00 +34°C° 0 mm 6 mps 754 mmHg 47%
    17:00 +33°C° 0 mm 6 mps 754 mmHg 48%
    18:00 +32°C° 0 mm 5 mps 754 mmHg 49%
    19:00 +32°C° 0 mm 5 mps 755 mmHg 51%
    20:00 +30°C° 0 mm 5 mps 755 mmHg 53%
    21:00 +30°C° 0 mm 5 mps 756 mmHg 55%
    22:00 +29°C° 0 mm 4 mps 756 mmHg 57%
    23:00 +29°C° 0 mm 4 mps 756 mmHg 60%

    25 January, Friday

    Time Temperature Precipitation Wind Pressure Humidity
    00:00 +28°C° 0 mm 3 mps 755 mmHg 62%
    01:00 +28°C° 0 mm 3 mps 755 mmHg 64%
    02:00 +28°C° 0 mm 3 mps 755 mmHg 67%
    03:00 +27°C° 0 mm 4 mps 754 mmHg 69%
    04:00 +27°C° 0 mm 3 mps 754 mmHg 71%
    05:00 +26°C° 0 mm 3 mps 755 mmHg 73%
    06:00 +26°C° 0 mm 3 mps 755 mmHg 74%
    07:00 +27°C° 0 mm 3 mps 756 mmHg 71%
    08:00 +28°C° 0 mm 3 mps 756 mmHg 67%
    09:00 +28°C° 0 mm 3 mps 757 mmHg 63%
    10:00 +30°C° 0 mm 4 mps 757 mmHg 58%
    11:00 +32°C° 0 mm 4 mps 756 mmHg 53%
    12:00 +33°C° 0 mm 5 mps 756 mmHg 48%
    13:00 +34°C° 0 mm 5 mps 755 mmHg 46%
    14:00 +34°C° 0 mm 6 mps 754 mmHg 45%
    15:00 +34°C° 0 mm 6 mps 753 mmHg 43%
    16:00 +34°C° 0 mm 6 mps 754 mmHg 46%
    17:00 +33°C° 0 mm 6 mps 754 mmHg 48%
    18:00 +32°C° 0 mm 6 mps 754 mmHg 51%
    19:00 +30°C° 0 mm 6 mps 755 mmHg 54%
    20:00 +30°C° 0 mm 6 mps 755 mmHg 57%
    21:00 +29°C° 0 mm 6 mps 756 mmHg 60%
    22:00 +29°C° 0 mm 5 mps 756 mmHg 62%
    23:00 +28°C° 0 mm 4 mps 756 mmHg 65%

    26 January, Saturday

    Time Temperature Precipitation Wind Pressure Humidity
    00:00 +28°C° 0 mm 4 mps 756 mmHg 67%
    01:00 +28°C° 0 mm 4 mps 755 mmHg 69%
    02:00 +27°C° 0 mm 3 mps 755 mmHg 70%
    03:00 +27°C° 0 mm 3 mps 755 mmHg 72%
    04:00 +27°C° 0 mm 3 mps 755 mmHg 74%
    05:00 +26°C° 0 mm 3 mps 755 mmHg 75%
    06:00 +26°C° 0 mm 3 mps 755 mmHg 77%
    07:00 +27°C° 0 mm 4 mps 756 mmHg 73%
    08:00 +28°C° 0 mm 4 mps 756 mmHg 69%
    09:00 +28°C° 0 mm 5 mps 757 mmHg 65%
    10:00 +30°C° 0 mm 5 mps 756 mmHg 60%
    11:00 +32°C° 0 mm 6 mps 756 mmHg 55%
    12:00 +33°C° 0 mm 7 mps 756 mmHg 50%
    13:00 +34°C° 0 mm 7 mps 755 mmHg 48%
    14:00 +34°C° 0 mm 7 mps 754 mmHg 47%
    15:00 +34°C° 0 mm 7 mps 753 mmHg 46%
    16:00 +33°C° 0 mm 7 mps 754 mmHg 49%
    17:00 +33°C° 0 mm 7 mps 754 mmHg 52%
    18:00 +32°C° 0 mm 7 mps 755 mmHg 55%
    19:00 +30°C° 0 mm 7 mps 755 mmHg 57%
    20:00 +30°C° 0 mm 7 mps 756 mmHg 60%
    21:00 +29°C° 0 mm 6 mps 756 mmHg 63%
    22:00 +29°C° 0 mm 6 mps 756 mmHg 64%
    23:00 +28°C° 0 mm 5 mps 756 mmHg 66%

    27 January, Sunday

    Time Temperature Precipitation Wind Pressure Humidity
    00:00 +28°C° 0 mm 5 mps 756 mmHg 68%
    01:00 +28°C° 0 mm 5 mps 756 mmHg 70%
    02:00 +27°C° 0 mm 5 mps 755 mmHg 72%
    03:00 +27°C° 0 mm 5 mps 755 mmHg 74%
    04:00 +27°C° 0 mm 5 mps 755 mmHg 76%
    05:00 +27°C° 0 mm 5 mps 756 mmHg 77%
    06:00 +26°C° 0 mm 4 mps 756 mmHg 79%
    07:00 +27°C° 0 mm 5 mps 756 mmHg 75%
    08:00 +28°C° 0 mm 5 mps 757 mmHg 71%
    09:00 +29°C° 0 mm 5 mps 757 mmHg 67%
    10:00 +30°C° 0 mm 5 mps 757 mmHg 62%
    11:00 +32°C° 0 mm 6 mps 756 mmHg 56%
    12:00 +33°C° 0 mm 7 mps 755 mmHg 50%
    13:00 +34°C° 0 mm 7 mps 755 mmHg 49%
    14:00 +34°C° 0 mm 8 mps 754 mmHg 47%
    15:00 +34°C° 0 mm 8 mps 754 mmHg 46%
    16:00 +33°C° 0 mm 8 mps 754 mmHg 49%
    17:00 +32°C° 0 mm 8 mps 754 mmHg 52%
    18:00 +32°C° 0 mm 8 mps 754 mmHg 54%
    19:00 +31°C° 0 mm 8 mps 755 mmHg 56%
    20:00 +29°C° 0 mm 8 mps 755 mmHg 58%
    21:00 +29°C° 0 mm 7 mps 756 mmHg 60%
    22:00 +28°C° 0 mm 7 mps 756 mmHg 62%
    23:00 +28°C° 0 mm 6 mps 756 mmHg 64%
    Show more